This is the latest recevied weather packets stored in our database for station/object EA3ANS-1. If no packets are shown the sender has not sent any weather packets the latest 10 day(s).
| Time | Temp. | Humidity | Pressure | Rain* | Wind** | Luminosity | Snow |
|---|---|---|---|---|---|---|---|
| 1777902160 | 19.44° C | - | 1011.1 hPa | 0 mm | 3.13 m/s, 218° | - | - |
| 1777901561 | 18.89° C | - | 1011.1 hPa | 0 mm | 2.24 m/s, 224° | - | - |
| 1777900959 | 19.44° C | - | 1011.1 hPa | 0 mm | 3.13 m/s, 194° | - | - |
| 1777900360 | 19.44° C | - | 1011.1 hPa | 0 mm | 3.58 m/s, 138° | - | - |
| 1777899763 | 20° C | - | 1010.8 hPa | 0 mm | 3.58 m/s, 120° | - | - |
| 1777899165 | 20° C | - | 1010.6 hPa | 0 mm | 2.24 m/s, 131° | - | - |
| 1777898562 | 20° C | - | 1010.6 hPa | 0 mm | 3.13 m/s, 121° | - | - |
| 1777897962 | 20.56° C | - | 1010.6 hPa | 0 mm | 3.58 m/s, 179° | - | - |
| 1777897362 | 20.56° C | - | 1010.5 hPa | 0 mm | 4.02 m/s, 113° | - | - |
| 1777896761 | 20° C | - | 1010.7 hPa | 0 mm | 4.02 m/s, 149° | - | - |
| 1777896163 | 20° C | - | 1010.7 hPa | 0 mm | 4.02 m/s, 150° | - | - |
| 1777895562 | 20° C | - | 1010.8 hPa | 0 mm | 3.13 m/s, 150° | - | - |
| 1777894964 | 20.56° C | - | 1010.7 hPa | 0 mm | 3.13 m/s, 150° | - | - |
| 1777894361 | 21.11° C | - | 1010.7 hPa | 0 mm | 3.13 m/s, 170° | - | - |
| 1777893762 | 21.11° C | - | 1010.8 hPa | 0 mm | 2.68 m/s, 148° | - | - |
| 1777893161 | 21.11° C | - | 1010.8 hPa | 0 mm | 4.02 m/s, 152° | - | - |
| 1777892563 | 21.67° C | - | 1010.9 hPa | 0 mm | 2.68 m/s, 201° | - | - |
| 1777891962 | 22.22° C | - | 1011 hPa | 0 mm | 0.89 m/s, 211° | - | - |
| 1777891363 | 22.78° C | - | 1011 hPa | 0 mm | 3.13 m/s, 162° | - | - |
| 1777890766 | 22.22° C | - | 1011.2 hPa | 0 mm | 1.79 m/s, 146° | - | - |
| 1777890161 | 22.22° C | - | 1011.3 hPa | 0 mm | 2.24 m/s, 118° | - | - |
| 1777889563 | 22.22° C | - | 1011.4 hPa | 0 mm | 1.34 m/s, 148° | - | - |
| 1777888962 | 21.11° C | - | 1011.4 hPa | 0 mm | 1.79 m/s, 159° | - | - |
| 1777888362 | 20.56° C | - | 1011.4 hPa | 0 mm | 0.89 m/s, 288° | - | - |
| 1777887764 | 20° C | - | 1011.5 hPa | 0 mm | 0.45 m/s, 219° | - | - |
* Rain latest hour (hover to see other rain measurements)
** Current wind speed in m/s (hover to see current wind gust speed)